SCP
-0 -0 -0 -0 -0 -0 -0 -0 -0 -0 -0 -0 -0 -0 -0 -0 -0 0 0 0 0 -0 0 0 0 0 0 0 0 0 0 -0 0 0 0 0 0 -0 -0 0 0 0 0 -0 -0
-0 -0 -0 -0 -0 -0 -0 -0 -0 -0 -0 -0 -0 -0 -0 -0 0 0 -0 0 -0 0 -0 0 0 0 0 0 0 0 0 -0 0 0 0 0 0 0 0 -0 -0 -0 -0 -0 -0
-0 -0 -0 -0 -0 -0 -0 -0 -0 -0 -0 -0 -0 -0 0 -0 0 0 -0 -0 -0 0 0 0 0 0 0 0 0 0 0 0 0 0 0 -0 0 0 0 -0 -0 -0 -0 -0 0
-0 -0 -0 -0 -0 -0 -0 -0 -0 -0 -0 -0 -0 -0 -0 -0 -0 0 -0 -0 0 0 0 0 0 0 0 -0 0 0 0 0 -0 -0 -0 0 0 0 0 -0 -0 -0 -0 -0 0
-0 -0 -0 -0 -0 -0 -0 -0 -0 -0 -0 -0 -0 -0 -0 -0 0 -0 0 0 0 0 -0 0 0 -0 0 0 0 0 0 0 0 0 -0 -0 0 0 0 -0 -0 -0 -0 -0 0
-0 -0 -0 -0 -0 -0 -0 -0 -0 -0 -0 0 0 0 -0 -0 0 0 -0 0 0 0 0 0 0 0 0 -0 0 0 0 -0 0 -0 -0 -0 -0 0 0 -0 -0 -0 -0 -0 0
-0 -0 -0 -0 -0 -0 -0 -0 -0 -0 -0 -0 0 0 0 -0 0 -0 0 0 -0 0 0 0 0 0 0 -0 0 0 0 0 -0 -0 -0 0 -0 0 -0 -0 -0 -0 -0 -0 -0
0 -0 -0 -0 -0 -0 -0 -0 -0 -0 -0 -0 0 0 0 0 0 -0 -0 0 0 0 0 0 0 0 0 0 0 0 -0 0 -0 0 -0 -0 -0 -0 -0 -0 -0 -0 -0 -0 -0
-0 -0 -0 -0 -0 -0 -0 -0 -0 -0 -0 -0 -0 -0 -0 0 0 0 0 0 0 0 0 0 -0 0 0 0 -0 0 -0 0 0 0 0 -0 -0 -0 -0 -0 -0 -0 -0 -0 -0
-0 -0 -0 -0 -0 -0 -0 -0 0 -0 -0 -0 -0 -0 -0 -0 0 0 0 0 -0 -0 0 -0 -0 -0 0 0 0 -0 0 0 0 -0 -0 0 0 0 -0 -0 -0 -0 -0 -0 -0
-0 -0 -0 -0 -0 -0 -0 -0 -0 -0 -0 -0 -0 -0 -0 -0 -0 0 -0 0 0 -0 0 0 -0 0 -0 0 0 0 -0 0 0 0 -0 0 -0 0 -0 -0 -0 -0 -0 -0 -0
-0 -0 -0 -0 -0 -0 -0 0 -0 -0 0 -0 0 0 -0 -0 -0 -0 0 0 0 0 -0 0 0 0 0 0 0 -0 0 0 -0 0 -0 0 0 0 -0 -0 -0 -0 -0 -0 -0
-0 -0 -0 -0 -0 0 -0 -0 -0 -0 -0 -0 0 0 -0 -0 0 -0 -0 -0 -0 -0 0 -0 0 0 0 0 -0 -0 -0 0 0 0 -0 0 0 -0 -0 -0 -0 -0 -0 -0 -0
-0 -0 -0 -0 -0 0 0 0 -0 -0 0 -0 -0 -0 -0 0 -0 -0 0 -0 -0 -0 -0 -0 -0 -0 -0 -0 0 0 0 0 0 0 0 0 0 0 0 -0 -0 -0 -0 -0 -0
-0 -0 -0 0 0 0 0 0 0 -0 0 -0 -0 -0 -0 -0 -0 -0 -0 -0 0 0 0 0 -0 -0 -0 -0 -0 -0 0 0 0 0 0 -0 0 0 0 -0 -0 0 0 -0 -0
-0 -0 0 0 0 0 0 0 0 0 0 0 0 0 -0 0 0 -0 -0 0 0 0 -0 -0 0 -0 -0 -0 -0 -0 0 0 0 0 0 -0 0 0 0 0 0 0 0 -0 -0
-0 0 -0 0 0 0 0 0 0 0 0 0 0 0 0 0 0 -0 -0 -0 -0 0 0 0 0 0 0 0 0 -0 0 0 0 0 0 0 0 -0 0 0 0 0 0 0 0
-0 -0 0 0 0 0 0 0 0 0 0 0 0 0 0 0 0 0 0 -0 -0 0 0 0 0 0 0 0 0 0 -0 -0 0 0 0 0 0 0 0 0 0 0 0 0 0
0 0 0 0 0 0 0 0 0 0 0 0 0 0 0 0 0 0 0 0 0 -0 0 0 0 0 0 0 -0 0 0 -0 -0 -0 0 0 0 0 0 0 0 0 0 0 0
0 0 0 0 0 0 0 0 0 0 0 0 0 0 0 0 0 0 0 0 0 0 -0 0 0 0 0 0 0 0 0 0 0 -0 0 0 -0 0 0 0 0 0 0 0 0
0 0 0 0 0 0 0 0 0 0 0 0 0 0 0 0 0 0 0 0 0 0 0 0 0 0 0 0 0 0 0 0 -0 0 -0 0 0 0 0 0 0 0 0 0 0
0 0 0 0 0 0 0 0 0 0 0 0 0 0 0 0 0 0 0 0 0 0 0 0 0 0 0 0 0 0 0 0 0 0 0 0 -0 0 1 0 0 0 1 1 1
0 0 0 0 0 0 0 0 0 0 0 0 0 0 0 0 0 0 0 0 0 0 0 0 0 0 0 0 0 0 0 0 -0 -0 -0 0 0 0 1 1 1 1 1 1 0
0 0 0 0 0 0 0 0 0 0 0 0 0 0 0 0 0 0 0 0 0 0 0 0 0 0 0 0 0 0 0 0 0 0 0 0 0 0 0 0 0 1 1 1 1
0 0 0 0 0 0 0 0 0 0 0 0 0 0 0 0 0 0 0 0 0 0 0 0 0 0 0 0 0 0 0 0 0 0 0 0 0 0 0 0 1 1 1 1 1
0 0 0 0 0 0 0 0 0 0 0 0 0 0 0 0 0 0 0 0 0 0 0 0 0 0 0 0 0 0 0 0 0 0 0 0 0 0 0 1 1 1 1 1 1
0 0 0 0 0 0 0 0 0 0 0 0 0 0 0 0 0 0 0 0 0 0 0 0 0 0 0 0 0 0 0 0 0 0 0 0 0 0 0 1 1 1 1 1 1
Wind_Speed_500mb
21 17 15 14 13 12 11 10 9 8 5 4 6 6 6 6 6 11 5 13 22 25 25 17 11 9 2 4 5 6 6 18 20 17 18 24 21 18 25 26 15 10 32 39 39
23 19 17 16 15 13 12 11 9 6 5 5 5 6 7 5 5 6 10 14 23 23 26 17 14 7 2 5 3 8 3 13 8 9 11 18 16 22 21 21 23 35 43 42 36
25 23 20 18 16 14 13 11 9 5 5 5 4 6 7 9 11 5 14 23 26 28 19 9 9 5 1 5 2 4 11 8 11 3 16 22 20 13 16 19 31 44 45 39 33
25 25 23 20 17 16 15 12 8 2 3 2 2 6 9 18 6 8 22 20 25 25 18 8 7 10 2 5 5 8 5 6 15 17 24 18 23 27 14 24 35 39 41 38 32
23 23 24 22 19 17 14 12 5 1 2 2 6 12 20 8 6 18 28 21 23 25 16 7 5 9 4 8 11 10 8 3 9 14 21 25 19 19 25 30 36 39 37 34 28
22 24 25 22 19 17 15 9 1 1 2 3 7 15 13 13 14 24 24 23 18 17 12 4 5 7 8 11 8 11 7 6 8 20 21 17 22 16 22 32 37 37 34 33 26
24 26 27 24 18 16 11 5 1 3 5 5 12 18 4 11 18 22 25 17 18 14 10 5 4 8 2 15 6 6 10 15 18 19 12 12 16 9 34 31 35 33 32 30 28
28 29 29 23 18 12 5 5 4 3 5 8 15 22 8 20 17 15 24 20 22 13 7 5 6 3 5 11 7 14 10 3 15 14 11 17 13 23 34 34 33 32 32 30 28
30 30 30 22 16 6 5 3 7 6 7 12 16 8 15 15 10 14 17 16 21 17 8 5 3 4 12 20 12 14 16 15 10 15 11 20 11 21 30 29 30 33 35 33 31
37 38 31 23 10 6 7 9 12 11 11 13 13 7 15 14 15 15 16 24 23 26 12 11 13 15 12 9 9 12 7 13 11 15 16 16 8 20 34 33 30 32 35 34 32
36 38 31 20 5 7 5 2 0 3 5 5 14 2 20 17 19 17 23 22 25 31 20 17 16 20 15 12 8 17 19 2 3 8 8 9 11 19 30 35 34 34 36 36 34
38 34 29 16 4 7 7 1 6 1 6 6 8 7 14 18 17 26 25 26 32 30 18 15 25 10 3 10 8 9 11 13 7 4 12 5 17 21 28 35 35 36 37 38 38
40 36 29 15 8 7 9 4 9 4 10 10 12 13 14 21 16 33 32 16 35 35 29 28 5 13 13 15 18 19 20 5 8 10 15 12 25 18 18 30 37 36 36 36 41
42 37 30 10 4 8 2 4 8 5 10 18 20 13 17 14 14 28 29 20 17 28 19 25 16 12 20 26 23 24 18 15 10 11 9 3 8 15 11 25 29 38 41 44 44
42 37 28 9 8 7 10 1 5 3 9 22 18 17 22 15 27 27 26 20 19 18 19 14 22 30 28 27 20 25 8 17 15 17 10 18 13 8 9 11 21 31 36 45 47
44 37 28 9 8 17 11 1 1 11 5 16 17 22 27 21 17 29 30 17 4 12 20 24 5 12 27 26 24 12 16 13 13 21 21 21 14 6 7 11 9 4 15 41 48
43 37 24 3 8 18 15 4 10 11 8 16 19 20 30 20 19 24 32 32 21 21 25 26 29 15 14 25 20 28 27 21 21 20 22 0 10 24 12 5 6 11 10 14 36
42 35 13 3 14 20 15 11 15 3 16 6 10 17 25 22 20 23 27 30 35 22 10 22 25 36 29 34 22 31 36 26 26 23 23 24 13 9 13 9 4 9 12 11 24
39 28 10 5 18 21 20 16 5 4 5 13 16 21 24 22 11 26 30 30 30 33 19 17 19 6 12 28 32 23 28 35 39 39 18 15 20 16 18 16 2 6 11 14 18
38 18 7 6 21 14 17 20 7 7 7 14 26 25 28 30 25 23 25 21 30 33 37 8 11 18 21 17 22 29 18 22 23 34 36 26 26 16 20 20 8 7 11 15 5
24 14 9 7 21 19 19 22 11 16 13 13 19 15 23 21 32 28 15 16 31 34 34 25 18 17 14 25 30 24 28 24 27 25 28 27 25 3 11 10 3 6 12 7 5
11 9 5 10 17 12 20 13 4 15 21 15 12 19 18 25 30 33 31 18 22 29 33 32 16 22 29 13 5 22 32 40 24 34 19 25 19 11 16 13 8 7 8 10 12
19 14 13 11 13 19 14 18 18 16 21 14 19 18 15 21 18 31 27 24 23 31 18 22 19 21 25 22 15 22 28 30 31 29 33 24 22 16 18 13 8 5 6 9 12
11 7 9 12 16 17 22 26 27 18 24 19 16 12 20 24 22 13 27 18 26 31 5 16 31 23 25 22 17 39 32 29 34 30 32 34 36 20 21 18 16 13 14 15 16
6 3 6 6 9 15 19 17 20 30 23 19 20 27 28 31 29 30 28 21 19 17 14 20 35 34 37 37 26 24 30 33 35 36 37 32 33 29 26 21 24 24 24 24 21
11 9 8 26 20 21 15 19 27 34 17 23 26 13 16 25 27 25 30 33 28 24 23 21 26 30 42 36 34 40 35 31 32 33 19 25 25 9 11 28 28 32 32 28 22
10 14 10 15 21 18 24 23 20 22 25 23 26 18 25 16 21 19 20 32 20 18 27 27 23 25 37 39 40 44 41 35 30 25 28 26 19 15 23 32 37 38 34 27 20
Wind_Direction_500mb
12 8 359 351 346 344 342 343 337 312 280 259 249 208 217 219 221 186 172 191 181 171 161 152 143 151 195 271 305 278 213 89 87 50 109 121 114 77 103 126 70 106 131 139 147
15 10 1 352 347 343 341 338 332 300 276 271 235 203 202 189 177 192 212 192 171 166 156 147 148 147 289 258 270 269 98 64 49 66 116 130 105 108 120 115 107 114 125 138 145
11 8 2 352 344 341 340 337 333 295 266 266 229 184 176 149 134 135 181 166 164 158 168 178 184 218 275 202 334 48 62 103 66 88 134 135 119 108 108 102 137 140 142 146 148
8 6 0 351 342 337 339 335 326 277 279 275 204 155 155 145 157 177 165 157 166 170 170 181 225 246 214 179 138 134 102 60 57 128 136 144 126 103 61 92 137 143 147 149 151
4 2 358 350 340 336 335 331 320 253 228 175 168 148 141 160 91 166 170 174 162 153 173 175 224 298 349 162 173 80 60 99 105 131 145 138 135 98 99 119 136 144 151 153 153
0 357 354 349 342 336 334 333 310 195 169 145 153 153 151 173 132 158 165 171 172 171 186 165 355 329 91 116 308 117 50 113 140 134 150 161 138 142 124 133 141 152 158 159 160
0 354 353 347 342 336 343 2 78 153 157 150 148 149 156 126 148 156 169 175 187 185 188 182 343 301 190 130 83 140 127 96 124 140 158 168 172 117 148 149 150 159 162 166 165
2 358 353 349 343 346 39 56 54 142 147 142 145 140 108 147 151 163 183 197 195 191 164 198 315 220 295 132 193 136 171 214 131 187 170 210 126 132 158 159 160 161 162 167 168
3 2 355 352 348 27 39 51 66 99 120 130 130 143 127 151 153 176 174 186 177 178 179 198 220 197 170 190 191 192 162 265 146 228 161 223 66 147 173 168 165 166 166 170 170
4 0 360 355 11 48 83 91 92 86 106 109 142 191 159 163 160 162 172 164 166 165 171 204 214 207 189 149 235 191 91 230 235 172 209 195 153 163 181 181 177 171 174 177 180
4 359 357 359 50 54 137 43 300 151 217 325 139 67 138 145 144 161 154 161 168 182 194 197 225 217 193 180 260 261 219 63 340 106 234 226 171 186 185 197 184 183 183 184 187
2 1 355 2 121 76 90 43 37 176 201 201 201 186 156 163 155 167 169 182 185 195 201 194 228 118 161 191 211 194 195 184 226 190 260 240 247 204 187 209 206 195 189 189 187
358 359 355 352 168 128 103 89 11 25 249 161 184 179 179 177 185 175 181 193 201 205 209 229 106 144 211 197 223 220 262 124 338 166 231 274 253 209 210 207 208 220 205 200 196
356 355 353 348 143 194 185 10 8 4 237 144 187 171 164 180 167 175 189 189 203 216 206 237 166 213 223 237 233 249 228 246 234 239 245 234 296 184 197 208 215 213 216 213 208
353 351 349 323 224 178 204 303 358 305 239 146 150 160 169 204 130 187 184 199 207 192 211 198 213 223 231 234 225 258 212 233 236 247 284 223 263 150 170 222 201 216 224 223 217
350 348 342 323 230 213 193 204 282 228 212 162 155 182 179 191 171 155 182 210 183 197 228 260 170 244 239 224 231 260 218 209 239 255 248 245 242 219 88 98 129 187 251 233 220
345 344 339 260 203 195 188 205 225 249 139 166 183 187 198 178 166 183 190 195 198 201 211 209 216 205 222 204 201 213 217 225 221 217 246 360 232 262 141 138 335 331 312 249 217
343 342 344 254 186 170 172 221 242 45 184 118 185 188 199 178 196 194 195 207 218 232 257 211 199 209 201 229 202 214 232 235 234 242 253 140 243 226 104 130 103 22 6 352 210
342 344 328 321 179 171 206 218 266 211 157 190 172 198 198 198 242 200 216 220 205 213 230 201 233 142 218 215 231 203 231 248 265 268 270 240 198 174 168 167 91 47 52 45 8
342 334 278 250 180 187 227 244 237 215 202 214 220 210 210 196 201 200 194 217 218 204 229 192 245 194 163 216 228 260 256 212 232 251 248 239 247 274 179 199 149 88 56 49 21
347 304 289 206 178 215 236 235 240 206 209 217 230 231 242 212 210 204 210 195 212 191 212 219 241 149 175 207 216 197 228 236 271 233 249 249 249 187 173 141 168 63 62 65 97
349 274 267 178 227 236 245 226 244 215 208 232 257 253 241 212 222 228 224 235 178 183 199 210 230 237 229 140 296 288 230 225 229 228 243 275 272 100 127 148 169 90 43 45 68
325 280 287 201 243 223 220 251 249 223 217 218 235 231 220 226 233 229 225 214 180 192 207 178 220 232 232 208 208 239 228 250 253 256 256 235 249 139 150 151 154 138 91 94 101
318 284 193 218 255 271 276 257 243 220 263 239 259 244 226 228 222 231 227 185 204 222 121 222 241 232 252 237 220 204 229 225 237 236 241 241 256 176 195 187 170 156 145 126 103
258 279 319 260 203 273 264 286 268 244 226 240 231 241 239 238 233 224 236 196 201 190 217 229 241 250 247 260 257 246 237 221 232 246 256 267 265 248 187 189 182 161 157 152 138
282 287 260 278 266 263 230 253 252 254 239 244 238 212 232 243 251 274 234 226 227 175 201 226 242 249 256 250 244 251 244 239 225 243 249 255 260 260 183 175 170 172 168 164 157
251 255 258 270 257 253 253 250 265 267 260 257 283 275 248 271 344 304 282 278 280 262 218 227 234 229 250 251 245 242 239 235 225 227 234 241 242 141 171 181 183 174 172 174 179
Wind_Speed_850mb
21 17 15 14 13 12 11 10 9 8 5 4 6 6 6 6 6 11 5 13 22 25 25 17 11 9 2 4 5 6 6 18 20 17 18 24 21 18 25 26 15 10 32 39 39
23 19 17 16 15 13 12 11 9 6 5 5 5 6 7 5 5 6 10 14 23 23 26 17 14 7 2 5 3 8 3 13 8 9 11 18 16 22 21 21 23 35 43 42 36
25 23 20 18 16 14 13 11 9 5 5 5 4 6 7 9 11 5 14 23 26 28 19 9 9 5 1 5 2 4 11 8 11 3 16 22 20 13 16 19 31 44 45 39 33
25 25 23 20 17 16 15 12 8 2 3 2 2 6 9 18 6 8 22 20 25 25 18 8 7 10 2 5 5 8 5 6 15 17 24 18 23 27 14 24 35 39 41 38 32
23 23 24 22 19 17 14 12 5 1 2 2 6 12 20 8 6 18 28 21 23 25 16 7 5 9 4 8 11 10 8 3 9 14 21 25 19 19 25 30 36 39 37 34 28
22 24 25 22 19 17 15 9 1 1 2 3 7 15 13 13 14 24 24 23 18 17 12 4 5 7 8 11 8 11 7 6 8 20 21 17 22 16 22 32 37 37 34 33 26
24 26 27 24 18 16 11 5 1 3 5 5 12 18 4 11 18 22 25 17 18 14 10 5 4 8 2 15 6 6 10 15 18 19 12 12 16 9 34 31 35 33 32 30 28
28 29 29 23 18 12 5 5 4 3 5 8 15 22 8 20 17 15 24 20 22 13 7 5 6 3 5 11 7 14 10 3 15 14 11 17 13 23 34 34 33 32 32 30 28
30 30 30 22 16 6 5 3 7 6 7 12 16 8 15 15 10 14 17 16 21 17 8 5 3 4 12 20 12 14 16 15 10 15 11 20 11 21 30 29 30 33 35 33 31
37 38 31 23 10 6 7 9 12 11 11 13 13 7 15 14 15 15 16 24 23 26 12 11 13 15 12 9 9 12 7 13 11 15 16 16 8 20 34 33 30 32 35 34 32
36 38 31 20 5 7 5 2 0 3 5 5 14 2 20 17 19 17 23 22 25 31 20 17 16 20 15 12 8 17 19 2 3 8 8 9 11 19 30 35 34 34 36 36 34
38 34 29 16 4 7 7 1 6 1 6 6 8 7 14 18 17 26 25 26 32 30 18 15 25 10 3 10 8 9 11 13 7 4 12 5 17 21 28 35 35 36 37 38 38
40 36 29 15 8 7 9 4 9 4 10 10 12 13 14 21 16 33 32 16 35 35 29 28 5 13 13 15 18 19 20 5 8 10 15 12 25 18 18 30 37 36 36 36 41
42 37 30 10 4 8 2 4 8 5 10 18 20 13 17 14 14 28 29 20 17 28 19 25 16 12 20 26 23 24 18 15 10 11 9 3 8 15 11 25 29 38 41 44 44
42 37 28 9 8 7 10 1 5 3 9 22 18 17 22 15 27 27 26 20 19 18 19 14 22 30 28 27 20 25 8 17 15 17 10 18 13 8 9 11 21 31 36 45 47
44 37 28 9 8 17 11 1 1 11 5 16 17 22 27 21 17 29 30 17 4 12 20 24 5 12 27 26 24 12 16 13 13 21 21 21 14 6 7 11 9 4 15 41 48
43 37 24 3 8 18 15 4 10 11 8 16 19 20 30 20 19 24 32 32 21 21 25 26 29 15 14 25 20 28 27 21 21 20 22 0 10 24 12 5 6 11 10 14 36
42 35 13 3 14 20 15 11 15 3 16 6 10 17 25 22 20 23 27 30 35 22 10 22 25 36 29 34 22 31 36 26 26 23 23 24 13 9 13 9 4 9 12 11 24
39 28 10 5 18 21 20 16 5 4 5 13 16 21 24 22 11 26 30 30 30 33 19 17 19 6 12 28 32 23 28 35 39 39 18 15 20 16 18 16 2 6 11 14 18
38 18 7 6 21 14 17 20 7 7 7 14 26 25 28 30 25 23 25 21 30 33 37 8 11 18 21 17 22 29 18 22 23 34 36 26 26 16 20 20 8 7 11 15 5
24 14 9 7 21 19 19 22 11 16 13 13 19 15 23 21 32 28 15 16 31 34 34 25 18 17 14 25 30 24 28 24 27 25 28 27 25 3 11 10 3 6 12 7 5
11 9 5 10 17 12 20 13 4 15 21 15 12 19 18 25 30 33 31 18 22 29 33 32 16 22 29 13 5 22 32 40 24 34 19 25 19 11 16 13 8 7 8 10 12
19 14 13 11 13 19 14 18 18 16 21 14 19 18 15 21 18 31 27 24 23 31 18 22 19 21 25 22 15 22 28 30 31 29 33 24 22 16 18 13 8 5 6 9 12
11 7 9 12 16 17 22 26 27 18 24 19 16 12 20 24 22 13 27 18 26 31 5 16 31 23 25 22 17 39 32 29 34 30 32 34 36 20 21 18 16 13 14 15 16
6 3 6 6 9 15 19 17 20 30 23 19 20 27 28 31 29 30 28 21 19 17 14 20 35 34 37 37 26 24 30 33 35 36 37 32 33 29 26 21 24 24 24 24 21
11 9 8 26 20 21 15 19 27 34 17 23 26 13 16 25 27 25 30 33 28 24 23 21 26 30 42 36 34 40 35 31 32 33 19 25 25 9 11 28 28 32 32 28 22
10 14 10 15 21 18 24 23 20 22 25 23 26 18 25 16 21 19 20 32 20 18 27 27 23 25 37 39 40 44 41 35 30 25 28 26 19 15 23 32 37 38 34 27 20
Wind_Direction_850mb
12 8 359 351 346 344 342 343 337 312 280 259 249 208 217 219 221 186 172 191 181 171 161 152 143 151 195 271 305 278 213 89 87 50 109 121 114 77 103 126 70 106 131 139 147
15 10 1 352 347 343 341 338 332 300 276 271 235 203 202 189 177 192 212 192 171 166 156 147 148 147 289 258 270 269 98 64 49 66 116 130 105 108 120 115 107 114 125 138 145
11 8 2 352 344 341 340 337 333 295 266 266 229 184 176 149 134 135 181 166 164 158 168 178 184 218 275 202 334 48 62 103 66 88 134 135 119 108 108 102 137 140 142 146 148
8 6 0 351 342 337 339 335 326 277 279 275 204 155 155 145 157 177 165 157 166 170 170 181 225 246 214 179 138 134 102 60 57 128 136 144 126 103 61 92 137 143 147 149 151
4 2 358 350 340 336 335 331 320 253 228 175 168 148 141 160 91 166 170 174 162 153 173 175 224 298 349 162 173 80 60 99 105 131 145 138 135 98 99 119 136 144 151 153 153
0 357 354 349 342 336 334 333 310 195 169 145 153 153 151 173 132 158 165 171 172 171 186 165 355 329 91 116 308 117 50 113 140 134 150 161 138 142 124 133 141 152 158 159 160
0 354 353 347 342 336 343 2 78 153 157 150 148 149 156 126 148 156 169 175 187 185 188 182 343 301 190 130 83 140 127 96 124 140 158 168 172 117 148 149 150 159 162 166 165
2 358 353 349 343 346 39 56 54 142 147 142 145 140 108 147 151 163 183 197 195 191 164 198 315 220 295 132 193 136 171 214 131 187 170 210 126 132 158 159 160 161 162 167 168
3 2 355 352 348 27 39 51 66 99 120 130 130 143 127 151 153 176 174 186 177 178 179 198 220 197 170 190 191 192 162 265 146 228 161 223 66 147 173 168 165 166 166 170 170
4 0 360 355 11 48 83 91 92 86 106 109 142 191 159 163 160 162 172 164 166 165 171 204 214 207 189 149 235 191 91 230 235 172 209 195 153 163 181 181 177 171 174 177 180
4 359 357 359 50 54 137 43 300 151 217 325 139 67 138 145 144 161 154 161 168 182 194 197 225 217 193 180 260 261 219 63 340 106 234 226 171 186 185 197 184 183 183 184 187
2 1 355 2 121 76 90 43 37 176 201 201 201 186 156 163 155 167 169 182 185 195 201 194 228 118 161 191 211 194 195 184 226 190 260 240 247 204 187 209 206 195 189 189 187
358 359 355 352 168 128 103 89 11 25 249 161 184 179 179 177 185 175 181 193 201 205 209 229 106 144 211 197 223 220 262 124 338 166 231 274 253 209 210 207 208 220 205 200 196
356 355 353 348 143 194 185 10 8 4 237 144 187 171 164 180 167 175 189 189 203 216 206 237 166 213 223 237 233 249 228 246 234 239 245 234 296 184 197 208 215 213 216 213 208
353 351 349 323 224 178 204 303 358 305 239 146 150 160 169 204 130 187 184 199 207 192 211 198 213 223 231 234 225 258 212 233 236 247 284 223 263 150 170 222 201 216 224 223 217
350 348 342 323 230 213 193 204 282 228 212 162 155 182 179 191 171 155 182 210 183 197 228 260 170 244 239 224 231 260 218 209 239 255 248 245 242 219 88 98 129 187 251 233 220
345 344 339 260 203 195 188 205 225 249 139 166 183 187 198 178 166 183 190 195 198 201 211 209 216 205 222 204 201 213 217 225 221 217 246 360 232 262 141 138 335 331 312 249 217
343 342 344 254 186 170 172 221 242 45 184 118 185 188 199 178 196 194 195 207 218 232 257 211 199 209 201 229 202 214 232 235 234 242 253 140 243 226 104 130 103 22 6 352 210
342 344 328 321 179 171 206 218 266 211 157 190 172 198 198 198 242 200 216 220 205 213 230 201 233 142 218 215 231 203 231 248 265 268 270 240 198 174 168 167 91 47 52 45 8
342 334 278 250 180 187 227 244 237 215 202 214 220 210 210 196 201 200 194 217 218 204 229 192 245 194 163 216 228 260 256 212 232 251 248 239 247 274 179 199 149 88 56 49 21
347 304 289 206 178 215 236 235 240 206 209 217 230 231 242 212 210 204 210 195 212 191 212 219 241 149 175 207 216 197 228 236 271 233 249 249 249 187 173 141 168 63 62 65 97
349 274 267 178 227 236 245 226 244 215 208 232 257 253 241 212 222 228 224 235 178 183 199 210 230 237 229 140 296 288 230 225 229 228 243 275 272 100 127 148 169 90 43 45 68
325 280 287 201 243 223 220 251 249 223 217 218 235 231 220 226 233 229 225 214 180 192 207 178 220 232 232 208 208 239 228 250 253 256 256 235 249 139 150 151 154 138 91 94 101
318 284 193 218 255 271 276 257 243 220 263 239 259 244 226 228 222 231 227 185 204 222 121 222 241 232 252 237 220 204 229 225 237 236 241 241 256 176 195 187 170 156 145 126 103
258 279 319 260 203 273 264 286 268 244 226 240 231 241 239 238 233 224 236 196 201 190 217 229 241 250 247 260 257 246 237 221 232 246 256 267 265 248 187 189 182 161 157 152 138
282 287 260 278 266 263 230 253 252 254 239 244 238 212 232 243 251 274 234 226 227 175 201 226 242 249 256 250 244 251 244 239 225 243 249 255 260 260 183 175 170 172 168 164 157
251 255 258 270 257 253 253 250 265 267 260 257 283 275 248 271 344 304 282 278 280 262 218 227 234 229 250 251 245 242 239 235 225 227 234 241 242 141 171 181 183 174 172 174 179